Showing default

OPS 0082 (TRANSIT 13), 2176

Orbit data source: Space-Track

OPS 0082 (TRANSIT 13), 2176 is a payload satellite owned by USN NAVAIR (US) in LEO that was launched on Thu, 19 May 1966 UTC via an SCOUT A launch vehicle from the Air Force Western Test Range (AFWTR). Payload-class satellites include a variety of spacecraft equipped with specific instruments for various scientific and technological missions. These include communications satellites like Starlink; space stations such as the ISS; scientific satellites like the Hubble; Earth observation satellites from companies like Planet Labs, Umbra, and HawkEye 360; GPS; miniature CubeSats for education and research; and military/defense satellites.

Loading next visibility...
Identifier
2176, 1966-041A
Orbit
LEO
Country
Flag of USUS
Related business
Manufacturer
APL
Mission
Spacecraft
Bus & Motor
TRANSIT 5, Unknown motor
Mass
51 kg wet, 51 kg dry
Launch date (UTC)
1966-05-19 (60 years ago)
Launch vehicle
SCOUT A
Launch site
Air Force Western Test Range (AFWTR)
Object type
Payload
Rocket body
Debris
Shape & HBR
Unknown
Radar Cross Section
Large (>1 m²)

Expand to show TLE details & history
Last TLE update: 4 hours ago

TLE from 4 hours ago
0 OPS 0082 (TRANSIT 13)
1  2176U 66041A   26068.49125836  .00000236  00000-0  13898-3 0  9996
2  2176  90.2238  80.7049 0065606  64.4280 296.3664 14.04286920 53445
Epoch: 2026-03-09T11:47Z
TLE epoch observation values (Epoch: 2026-03-09T11:47:24.722Z)
Latitude
0.00004°
Longitude
96.66845°
Altitude
861.123 km
Speed
7.433 km/s
True Right ascension
05h 22m 49s
True Declination
0° 00' 00"
Sunlit
Object was in daylight at epoch
Visualization orbit readout
Latitude
Unknown
Longitude
Unknown
Altitude
Unknown
Speed
Unknown
Apparent Right ascension
Unknown
Apparent Declination
Unknown
Sunlit
N/A
Visualization observer readout
Local Sidereal Time
20:06:58
Azimuth
Unknown
Elevation
Unknown
Doppler factor
Unknown
Orbital elements
Apogee altitude
923.55 km
Perigee altitude
828.368 km
Semi-major axis
7,254.096 km
Eccentricity
0.00656
Inclination
90.2238°
RAAN
80.7049°
Arg. of periapsis
64.428°
True anomaly
295.69037°
Mean anomaly
296.3664°
Eccentric anomaly
296.02863°
Mean motion
3.51292 °/min
Orbital period
102.48 mins
BSTAR
0.00013898
Loading maneuver chart data...
Computing Atmospheric mass density...
Loading historical data...
Loading historical data...
Loading historical data...
Loading historical data...
Loading historical data...
Loading historical data...
Loading historical data...

Documentation

Showing up to 5 results
|